contact:dominique.lefevre@mio.osupytheas.fr, maurice.libes@osupytheas.fr, didier.mallarino@osupytheas.fr
Project:EMSO http://www.emso-fr.org/EMSO-France
Depth: 2436.0 m
Title:EMSO Ligure Ouest : Data MII capteur AQUADOPP
Date,Latitude,Longitude,X_East,Y_North,Z_Up,Amplitude_X,Amplitude_Y,Amplitude_Z,Batterie,SoundSpeed,Heading,Pitch,Roll,Pressure,TIS,Speed,Direction
, degrees North, degrees East, m.s-1, m.s-1,m.s-1, 1, 1, 1, Volt, m.s-1, degree, degree, degree, dbar, degree_C, m.s-1, degree
2019-11-21T00:01:03,42.805,6.029,0.042,0.014,-0.011,100.0,107.0,98.0,13.4,1505.3,324.6,-0.7,1.8,2470.276,13.33,0.044,71.6
2019-11-21T00:04:03,42.805,6.029,0.014,-0.003,-0.048,99.0,108.0,98.0,13.3,1505.3,327.1,-0.7,1.9,2470.253,13.33,0.014,102.1
2019-11-21T00:07:03,42.805,6.029,0.0,-0.006,-0.034,100.0,108.0,98.0,13.4,1505.3,327.2,-0.7,1.8,2470.282,13.33,0.006,180.0
2019-11-21T00:10:03,42.805,6.029,-0.003,0.017,-0.02,100.0,106.0,97.0,13.3,1505.3,324.9,-0.7,1.8,2470.219,13.32,0.017,350.0
2019-11-21T00:13:03,42.805,6.029,0.02,0.0,-0.025,100.0,105.0,97.0,13.4,1505.3,324.0,-0.7,1.9,2470.218,13.32,0.02,90.0
2019-11-21T00:16:03,42.805,6.029,0.042,-0.005,-0.043,100.0,107.0,97.0,13.4,1505.3,326.6,-0.7,1.8,2470.245,13.32,0.042,96.8
2019-11-21T00:19:03,42.805,6.029,0.008,0.014,-0.018,98.0,108.0,98.0,13.4,1505.3,325.7,-0.7,1.8,2470.222,13.32,0.016,29.7
2019-11-21T00:22:03,42.805,6.029,0.035,0.005,-0.049,100.0,108.0,97.0,13.4,1505.3,325.0,-0.7,1.8,2470.253,13.32,0.035,81.9
2019-11-21T00:25:03,42.805,6.029,0.036,0.018,-0.019,100.0,106.0,98.0,13.4,1505.3,327.4,-0.7,1.8,2470.266,13.33,0.04,63.4
2019-11-21T00:28:03,42.805,6.029,0.009,0.003,-0.038,98.0,106.0,98.0,13.3,1505.3,328.5,-0.7,1.8,2470.228,13.33,0.009,71.6
2019-11-21T00:31:03,42.805,6.029,-0.007,0.004,-0.05,99.0,106.0,98.0,13.4,1505.3,323.3,-0.7,1.8,2470.212,13.32,0.008,299.7
2019-11-21T00:34:03,42.805,6.029,0.013,0.0,-0.056,100.0,107.0,96.0,13.3,1505.3,328.0,-0.7,1.8,2470.276,13.33,0.013,90.0
2019-11-21T00:37:03,42.805,6.029,0.033,0.021,-0.03,100.0,106.0,98.0,13.4,1505.3,325.7,-0.8,1.8,2470.269,13.33,0.039,57.5
2019-11-21T00:40:03,42.805,6.029,0.041,0.009,-0.012,99.0,105.0,98.0,13.3,1505.3,325.3,-0.7,1.8,2470.216,13.32,0.041,77.6
2019-11-21T00:43:03,42.805,6.029,0.0,0.005,-0.056,100.0,107.0,99.0,13.3,1505.3,326.0,-0.7,1.8,2470.239,13.32,0.005,0.0
2019-11-21T00:46:03,42.805,6.029,0.011,0.017,-0.07,99.0,106.0,98.0,13.4,1505.3,327.2,-0.7,1.9,2470.248,13.32,0.02,32.9
2019-11-21T00:49:03,42.805,6.029,0.023,0.002,-0.034,99.0,105.0,98.0,13.4,1505.3,325.8,-0.7,1.8,2470.222,13.33,0.023,85.0
2019-11-21T00:52:03,42.805,6.029,0.024,0.002,-0.014,99.0,105.0,98.0,13.4,1505.3,324.5,-0.7,1.9,2470.259,13.33,0.024,85.2
2019-11-21T00:55:03,42.805,6.029,0.009,0.0,-0.096,99.0,106.0,97.0,13.4,1505.3,325.6,-0.7,1.8,2470.266,13.33,0.009,90.0
2019-11-21T00:58:03,42.805,6.029,0.029,0.006,-0.018,100.0,106.0,98.0,13.4,1505.3,325.0,-0.7,1.8,2470.24,13.33,0.029,78.3
2019-11-21T01:04:03,42.805,6.029,0.02,0.004,-0.036,99.0,107.0,98.0,13.4,1505.3,327.1,-0.8,1.8,2470.273,13.31,0.02,78.7
2019-11-21T01:07:03,42.805,6.029,-0.002,0.0,-0.055,99.0,107.0,98.0,13.3,1505.3,328.2,-0.7,1.8,2470.28,13.31,0.002,270.0
2019-11-21T01:10:03,42.805,6.029,0.018,0.0,-0.026,98.0,106.0,98.0,13.4,1505.3,323.2,-0.7,1.9,2470.267,13.32,0.018,90.0
2019-11-21T01:13:03,42.805,6.029,0.003,0.021,-0.031,99.0,107.0,98.0,13.4,1505.3,326.7,-0.7,1.8,2470.278,13.32,0.021,8.1
2019-11-21T01:16:03,42.805,6.029,-0.008,0.0,-0.046,99.0,107.0,98.0,13.4,1505.3,327.9,-0.7,1.8,2470.241,13.32,0.008,270.0
2019-11-21T01:19:03,42.805,6.029,0.007,0.011,-0.025,100.0,109.0,97.0,13.4,1505.3,324.6,-0.7,1.8,2470.285,13.32,0.013,32.5
2019-11-21T01:22:03,42.805,6.029,-0.025,0.019,-0.045,100.0,107.0,97.0,13.4,1505.3,326.4,-0.7,1.9,2470.256,13.32,0.031,307.2
2019-11-21T01:25:03,42.805,6.029,0.033,-0.002,-0.034,100.0,106.0,98.0,13.4,1505.3,327.0,-0.7,1.9,2470.223,13.33,0.033,93.5
2019-11-21T01:28:03,42.805,6.029,0.028,0.012,-0.042,100.0,106.0,98.0,13.4,1505.3,327.9,-0.7,1.8,2470.249,13.33,0.03,66.8
2019-11-21T01:31:03,42.805,6.029,0.003,0.02,-0.012,100.0,107.0,97.0,13.4,1505.3,324.3,-0.7,1.8,2470.265,13.32,0.02,8.5
2019-11-21T01:34:03,42.805,6.029,0.01,-0.005,-0.043,100.0,106.0,99.0,13.3,1505.3,326.0,-0.7,1.8,2470.197,13.32,0.011,116.6
2019-11-21T01:37:03,42.805,6.029,0.044,-0.011,-0.014,99.0,107.0,99.0,13.4,1505.3,325.9,-0.7,1.8,2470.229,13.33,0.045,104.0
2019-11-21T01:40:03,42.805,6.029,0.06,0.009,-0.013,100.0,107.0,97.0,13.4,1505.3,327.4,-0.7,1.8,2470.243,13.33,0.06,81.5
2019-11-21T01:43:03,42.805,6.029,0.019,-0.005,-0.033,98.0,108.0,98.0,13.4,1505.3,326.8,-0.7,1.8,2470.252,13.33,0.019,104.7
2019-11-21T01:46:03,42.805,6.029,0.026,-0.001,-0.033,100.0,107.0,97.0,13.4,1505.3,326.0,-0.7,1.8,2470.255,13.33,0.026,92.2
2019-11-21T01:49:03,42.805,6.029,0.034,0.005,-0.006,99.0,106.0,98.0,13.4,1505.3,326.2,-0.7,1.9,2470.274,13.33,0.034,81.6
2019-11-21T01:52:03,42.805,6.029,0.056,0.017,0.002,100.0,107.0,97.0,13.4,1505.3,327.5,-0.7,1.8,2470.248,13.33,0.058,73.1
2019-11-21T01:55:03,42.805,6.029,0.015,0.029,-0.01,99.0,108.0,98.0,13.4,1505.3,324.3,-0.7,1.8,2470.256,13.33,0.032,27.4
2019-11-21T01:58:03,42.805,6.029,0.013,0.006,-0.016,99.0,106.0,98.0,13.3,1505.3,325.0,-0.7,1.8,2470.255,13.33,0.014,65.2
2019-11-21T02:01:03,42.805,6.029,0.016,0.01,-0.035,98.0,108.0,98.0,13.4,1505.3,323.5,-0.7,1.9,2470.303,13.33,0.018,58.0
2019-11-21T02:04:03,42.805,6.029,-0.008,0.008,-0.038,99.0,107.0,98.0,13.4,1505.3,326.3,-0.7,1.8,2470.236,13.33,0.011,315.0
2019-11-21T02:07:03,42.805,6.029,0.021,0.009,-0.03,99.0,106.0,99.0,13.4,1505.3,324.0,-0.7,1.8,2470.258,13.33,0.022,66.8
2019-11-21T02:10:03,42.805,6.029,0.026,0.024,-0.005,98.0,107.0,98.0,13.4,1505.3,324.3,-0.7,1.8,2470.281,13.33,0.035,47.3
2019-11-21T02:13:03,42.805,6.029,0.023,0.011,-0.037,100.0,106.0,98.0,13.3,1505.3,324.8,-0.7,1.8,2470.279,13.33,0.025,64.4
2019-11-21T02:16:03,42.805,6.029,0.058,0.016,-0.043,98.0,107.0,98.0,13.3,1505.3,324.6,-0.7,1.8,2470.247,13.33,0.06,74.6
2019-11-21T02:19:03,42.805,6.029,-0.001,0.004,-0.047,100.0,106.0,97.0,13.3,1505.3,325.8,-0.7,1.8,2470.253,13.33,0.004,346.0
2019-11-21T02:22:03,42.805,6.029,0.057,0.023,0.011,99.0,106.0,98.0,13.4,1505.3,325.9,-0.7,1.9,2470.246,13.33,0.061,68.0
2019-11-21T02:25:03,42.805,6.029,0.043,0.012,-0.002,99.0,107.0,97.0,13.4,1505.3,324.1,-0.7,1.9,2470.252,13.33,0.044,74.4
2019-11-21T02:28:03,42.805,6.029,0.025,0.022,-0.025,99.0,107.0,98.0,13.4,1505.3,327.0,-0.7,1.8,2470.26,13.33,0.033,48.7
2019-11-21T02:31:03,42.805,6.029,0.024,0.004,-0.021,101.0,107.0,97.0,13.4,1505.3,326.2,-0.7,1.8,2470.259,13.33,0.024,80.5
2019-11-21T02:34:03,42.805,6.029,0.021,0.005,-0.015,100.0,107.0,97.0,13.4,1505.3,327.1,-0.7,1.8,2470.248,13.33,0.021,76.6
2019-11-21T02:37:03,42.805,6.029,0.045,0.004,0.015,99.0,106.0,98.0,13.4,1505.3,326.0,-0.7,1.8,2470.219,13.33,0.045,84.9
2019-11-21T02:40:03,42.805,6.029,0.011,0.026,-0.029,100.0,107.0,98.0,13.4,1505.3,327.9,-0.7,1.8,2470.246,13.33,0.028,22.9
2019-11-21T02:43:03,42.805,6.029,0.02,0.013,-0.015,97.0,105.0,99.0,13.4,1505.3,326.9,-0.7,1.9,2470.229,13.33,0.023,57.0
2019-11-21T02:46:03,42.805,6.029,0.023,0.006,-0.005,99.0,109.0,98.0,13.4,1505.3,328.1,-0.7,1.8,2470.287,13.33,0.023,75.4
2019-11-21T02:49:03,42.805,6.029,0.023,0.013,-0.051,99.0,107.0,98.0,13.4,1505.3,323.9,-0.7,1.8,2470.205,13.33,0.026,60.5
2019-11-21T02:52:03,42.805,6.029,0.005,-0.007,-0.032,101.0,108.0,97.0,13.4,1505.3,326.7,-0.7,1.8,2470.247,13.33,0.008,144.5
2019-11-21T02:55:03,42.805,6.029,0.024,0.001,-0.034,99.0,108.0,97.0,13.4,1505.3,324.3,-0.7,1.8,2470.257,13.33,0.024,87.6
2019-11-21T02:58:03,42.805,6.029,0.017,0.018,0.003,99.0,107.0,99.0,13.4,1505.3,326.5,-0.7,1.8,2470.217,13.33,0.024,43.4
2019-11-21T03:04:03,42.805,6.029,0.007,0.001,-0.028,99.0,107.0,98.0,13.4,1505.3,325.6,-0.7,1.8,2470.31,13.31,0.007,81.9
2019-11-21T03:07:03,42.805,6.029,-0.005,0.025,-0.018,99.0,107.0,97.0,13.4,1505.3,324.7,-0.8,1.8,2470.307,13.31,0.025,348.7
2019-11-21T03:10:03,42.805,6.029,0.012,0.012,-0.053,99.0,106.0,98.0,13.4,1505.3,325.0,-0.7,1.8,2470.209,13.32,0.016,45.0
2019-11-21T03:13:03,42.805,6.029,0.0,0.037,0.004,100.0,106.0,99.0,13.3,1505.3,323.4,-0.7,1.8,2470.253,13.32,0.037,0.0
2019-11-21T03:16:03,42.805,6.029,0.019,0.023,-0.003,99.0,107.0,97.0,13.3,1505.3,328.0,-0.7,1.8,2470.265,13.32,0.029,39.6
2019-11-21T03:19:03,42.805,6.029,0.045,-0.001,-0.013,100.0,106.0,98.0,13.4,1505.3,327.1,-0.7,1.9,2470.251,13.32,0.045,91.3
2019-11-21T03:22:03,42.805,6.029,0.011,0.019,-0.026,99.0,106.0,97.0,13.4,1505.3,323.5,-0.7,1.8,2470.261,13.33,0.021,30.1
2019-11-21T03:25:03,42.805,6.029,0.018,0.014,-0.013,99.0,107.0,98.0,13.4,1505.3,327.4,-0.7,1.8,2470.258,13.33,0.022,52.1
2019-11-21T03:28:03,42.805,6.029,0.035,0.003,-0.02,99.0,108.0,97.0,13.4,1505.3,325.2,-0.7,1.8,2470.234,13.33,0.035,85.1
2019-11-21T03:31:03,42.805,6.029,0.019,0.008,-0.022,101.0,106.0,97.0,13.4,1505.3,327.0,-0.7,1.8,2470.219,13.33,0.02,67.2
2019-11-21T03:34:03,42.805,6.029,0.026,0.012,-0.036,101.0,106.0,99.0,13.4,1505.3,324.7,-0.7,1.8,2470.265,13.33,0.028,65.2
2019-11-21T03:37:03,42.805,6.029,0.013,0.022,-0.033,102.0,106.0,97.0,13.3,1505.3,326.0,-0.7,1.8,2470.254,13.33,0.025,30.6
2019-11-21T03:40:03,42.805,6.029,-0.013,0.0,-0.06,98.0,108.0,97.0,13.4,1505.3,325.3,-0.7,1.8,2470.297,13.33,0.013,270.0
2019-11-21T03:43:03,42.805,6.029,0.008,0.004,-0.046,98.0,108.0,97.0,13.4,1505.3,326.5,-0.7,1.9,2470.288,13.33,0.008,63.4
2019-11-21T03:46:03,42.805,6.029,-0.029,0.02,-0.057,100.0,107.0,98.0,13.3,1505.3,327.9,-0.7,1.8,2470.258,13.33,0.035,304.6
2019-11-21T03:49:03,42.805,6.029,-0.002,0.025,-0.021,100.0,106.0,98.0,13.3,1505.3,325.2,-0.6,1.8,2470.262,13.33,0.025,355.4
2019-11-21T03:52:03,42.805,6.029,0.025,0.01,-0.016,99.0,106.0,98.0,13.4,1505.3,328.7,-0.6,1.8,2470.195,13.33,0.026,68.2
2019-11-21T03:55:03,42.805,6.029,0.016,0.024,-0.005,100.0,109.0,98.0,13.3,1505.3,324.2,-0.7,1.8,2470.269,13.33,0.028,33.7
2019-11-21T03:58:03,42.805,6.029,-0.006,0.026,-0.03,99.0,107.0,97.0,13.4,1505.3,325.1,-0.7,1.8,2470.251,13.33,0.026,347.0
2019-11-21T04:04:03,42.805,6.029,-0.004,0.02,-0.038,98.0,109.0,98.0,13.3,1505.3,326.6,-0.7,1.8,2470.282,13.31,0.02,348.7
2019-11-21T04:07:03,42.805,6.029,0.017,0.03,-0.013,100.0,108.0,98.0,13.3,1505.3,326.9,-0.8,1.8,2470.254,13.31,0.034,29.5
2019-11-21T04:10:03,42.805,6.029,0.035,0.015,-0.037,101.0,108.0,97.0,13.4,1505.3,323.3,-0.7,1.8,2470.235,13.32,0.038,66.8
2019-11-21T04:13:03,42.805,6.029,0.023,0.021,-0.023,100.0,107.0,98.0,13.4,1505.3,325.8,-0.7,1.9,2470.275,13.32,0.031,47.6
2019-11-21T04:16:03,42.805,6.029,0.03,0.003,-0.032,101.0,107.0,98.0,13.4,1505.3,327.0,-0.7,1.8,2470.278,13.32,0.03,84.3
2019-11-21T04:19:03,42.805,6.029,0.04,0.013,-0.028,99.0,107.0,98.0,13.3,1505.3,324.6,-0.7,1.8,2470.271,13.33,0.042,72.0
2019-11-21T04:22:03,42.805,6.029,0.006,0.02,-0.034,100.0,107.0,97.0,13.4,1505.3,326.0,-0.7,1.8,2470.235,13.33,0.02,16.7
2019-11-21T04:25:03,42.805,6.029,-0.008,0.03,-0.047,100.0,107.0,98.0,13.4,1505.3,325.7,-0.7,1.8,2470.233,13.33,0.031,345.1
2019-11-21T04:28:03,42.805,6.029,0.004,0.003,-0.028,99.0,108.0,97.0,13.4,1505.3,326.2,-0.7,1.8,2470.223,13.33,0.005,53.1
2019-11-21T04:31:03,42.805,6.029,0.017,0.012,-0.019,100.0,106.0,98.0,13.3,1505.3,326.4,-0.7,1.8,2470.228,13.33,0.02,54.8
2019-11-21T04:34:03,42.805,6.029,0.021,0.028,-0.036,99.0,108.0,98.0,13.4,1505.3,327.0,-0.7,1.8,2470.221,13.33,0.035,36.9
2019-11-21T04:37:03,42.805,6.029,-0.003,0.016,-0.066,100.0,106.0,98.0,13.3,1505.3,323.8,-0.7,1.9,2470.246,13.33,0.016,349.4
2019-11-21T04:40:03,42.805,6.029,-0.022,0.02,-0.045,100.0,107.0,98.0,13.3,1505.3,326.4,-0.7,1.9,2470.225,13.33,0.029,312.3
2019-11-21T04:43:03,42.805,6.029,0.048,0.007,-0.008,99.0,106.0,99.0,13.4,1505.3,326.4,-0.7,1.8,2470.262,13.33,0.048,81.7
2019-11-21T04:46:03,42.805,6.029,-0.027,0.006,-0.067,101.0,108.0,97.0,13.3,1505.3,323.2,-0.7,1.8,2470.23,13.33,0.027,282.5
2019-11-21T04:49:03,42.805,6.029,0.006,0.037,-0.047,99.0,107.0,98.0,13.4,1505.3,325.6,-0.7,1.8,2470.249,13.33,0.037,9.2
2019-11-21T04:52:03,42.805,6.029,0.01,-0.01,-0.067,99.0,107.0,98.0,13.3,1505.3,326.1,-0.7,1.8,2470.242,13.33,0.014,135.0
2019-11-21T04:55:03,42.805,6.029,-0.008,0.011,0.0,99.0,107.0,96.0,13.3,1505.3,326.0,-0.7,1.9,2470.226,13.33,0.013,324.0
2019-11-21T04:58:03,42.805,6.029,0.006,0.006,-0.05,100.0,107.0,98.0,13.4,1505.3,326.3,-0.7,1.8,2470.218,13.33,0.008,45.0
2019-11-21T05:04:03,42.805,6.029,0.038,0.005,-0.013,100.0,106.0,98.0,13.4,1505.3,327.4,-0.7,1.9,2470.257,13.31,0.038,82.5
2019-11-21T05:07:03,42.805,6.029,0.021,0.03,0.0,98.0,107.0,98.0,13.3,1505.3,326.8,-0.8,1.8,2470.199,13.32,0.036,35.0
2019-11-21T05:10:03,42.805,6.029,0.031,0.016,-0.018,100.0,107.0,98.0,13.3,1505.3,323.6,-0.7,1.9,2470.22,13.32,0.034,62.7
2019-11-21T05:13:03,42.805,6.029,0.013,0.016,-0.042,97.0,109.0,97.0,13.4,1505.3,325.7,-0.7,1.8,2470.302,13.32,0.02,39.1
2019-11-21T05:16:03,42.805,6.029,0.038,-0.005,-0.001,101.0,107.0,98.0,13.4,1505.3,326.0,-0.7,1.9,2470.214,13.33,0.038,97.5
2019-11-21T05:22:03,42.805,6.029,0.038,0.016,-0.024,100.0,107.0,98.0,13.4,1505.3,325.2,-0.7,1.8,2470.232,13.31,0.041,67.2
2019-11-21T05:25:03,42.805,6.029,-0.005,0.027,-0.038,99.0,107.0,98.0,13.4,1505.3,323.6,-0.7,1.8,2470.282,13.31,0.027,349.5
2019-11-21T05:28:03,42.805,6.029,0.023,0.012,-0.021,100.0,107.0,98.0,13.4,1505.3,325.2,-0.7,1.8,2470.214,13.32,0.025,62.4
2019-11-21T05:31:03,42.805,6.029,0.03,0.018,-0.012,99.0,107.0,98.0,13.4,1505.3,323.0,-0.7,1.8,2470.195,13.32,0.034,59.0
2019-11-21T05:34:03,42.805,6.029,0.044,0.019,-0.015,101.0,108.0,98.0,13.4,1505.3,326.3,-0.7,1.9,2470.222,13.32,0.047,66.6
2019-11-21T05:37:03,42.805,6.029,-0.002,-0.001,-0.05,99.0,106.0,99.0,13.4,1505.3,323.6,-0.7,1.8,2470.229,13.33,0.002,243.4
2019-11-21T05:40:03,42.805,6.029,0.015,0.036,-0.001,99.0,108.0,98.0,13.4,1505.3,324.5,-0.7,1.8,2470.24,13.33,0.039,22.6
2019-11-21T05:43:03,42.805,6.029,0.018,0.015,-0.02,100.0,108.0,98.0,13.4,1505.3,323.5,-0.7,1.8,2470.25,13.33,0.023,50.2
2019-11-21T05:46:03,42.805,6.029,0.009,0.009,-0.04,101.0,107.0,98.0,13.4,1505.3,324.5,-0.7,1.8,2470.186,13.33,0.012,45.0
2019-11-21T05:49:03,42.805,6.029,0.013,0.01,-0.031,99.0,108.0,97.0,13.3,1505.3,328.2,-0.7,1.8,2470.241,13.33,0.016,52.4
2019-11-21T05:52:03,42.805,6.029,0.038,0.034,-0.016,100.0,108.0,98.0,13.4,1505.3,323.7,-0.7,1.8,2470.214,13.33,0.05,48.2
2019-11-21T05:55:03,42.805,6.029,0.023,0.025,-0.008,99.0,108.0,99.0,13.4,1505.3,325.9,-0.7,1.8,2470.2,13.33,0.033,42.6
2019-11-21T05:58:03,42.805,6.029,0.017,0.013,-0.007,99.0,107.0,98.0,13.4,1505.3,323.9,-0.7,1.8,2470.19,13.33,0.021,52.6
2019-11-21T06:04:03,42.805,6.029,0.037,0.016,0.009,100.0,107.0,98.0,13.3,1505.3,324.1,-0.8,1.8,2470.268,13.31,0.04,66.6
2019-11-21T06:07:03,42.805,6.029,0.025,0.037,-0.011,100.0,107.0,98.0,13.4,1505.3,326.2,-0.7,1.8,2470.226,13.31,0.044,34.0
2019-11-21T06:10:03,42.805,6.029,0.028,0.006,-0.055,99.0,107.0,98.0,13.4,1505.3,328.2,-0.7,1.8,2470.218,13.32,0.028,77.9
2019-11-21T06:13:03,42.805,6.029,0.019,0.027,-0.006,100.0,107.0,97.0,13.4,1505.3,327.3,-0.7,1.8,2470.242,13.32,0.033,35.1
2019-11-21T06:16:03,42.805,6.029,0.036,0.028,-0.012,100.0,107.0,97.0,13.4,1505.3,327.1,-0.7,1.8,2470.205,13.32,0.045,52.1
2019-11-21T06:19:03,42.805,6.029,-0.007,0.035,-0.025,99.0,109.0,97.0,13.4,1505.3,325.2,-0.7,1.8,2470.242,13.32,0.035,348.7
2019-11-21T06:22:03,42.805,6.029,-0.003,0.008,-0.042,100.0,108.0,99.0,13.4,1505.3,327.2,-0.7,1.9,2470.203,13.33,0.008,339.4
2019-11-21T06:25:03,42.805,6.029,0.016,0.012,-0.024,100.0,107.0,99.0,13.3,1505.3,326.7,-0.7,1.9,2470.189,13.33,0.02,53.1
2019-11-21T06:28:03,42.805,6.029,0.022,0.008,-0.04,102.0,106.0,97.0,13.3,1505.3,326.8,-0.7,1.8,2470.202,13.33,0.023,70.0
2019-11-21T06:31:03,42.805,6.029,0.044,0.016,-0.02,99.0,107.0,98.0,13.4,1505.3,326.6,-0.7,1.8,2470.179,13.33,0.046,70.0
2019-11-21T06:34:03,42.805,6.029,0.02,0.012,-0.062,99.0,108.0,98.0,13.3,1505.3,326.7,-0.7,1.8,2470.198,13.33,0.023,59.0
2019-11-21T06:37:03,42.805,6.029,0.033,0.008,-0.01,98.0,109.0,99.0,13.4,1505.3,323.0,-0.8,1.8,2470.242,13.33,0.033,76.4
2019-11-21T06:40:03,42.805,6.029,0.027,0.019,0.004,100.0,107.0,98.0,13.4,1505.3,325.4,-0.7,1.9,2470.188,13.33,0.033,54.9
2019-11-21T06:43:03,42.805,6.029,0.013,0.024,0.004,100.0,108.0,97.0,13.4,1505.3,324.5,-0.7,1.8,2470.199,13.33,0.027,28.4
2019-11-21T06:46:03,42.805,6.029,0.003,0.035,-0.023,99.0,109.0,98.0,13.3,1505.3,327.5,-0.7,1.8,2470.207,13.33,0.035,4.9
2019-11-21T06:49:03,42.805,6.029,-0.012,0.012,-0.07,100.0,108.0,98.0,13.4,1505.3,325.5,-0.7,1.8,2470.176,13.33,0.016,315.0
2019-11-21T06:52:03,42.805,6.029,0.02,0.001,-0.054,99.0,108.0,98.0,13.4,1505.3,327.3,-0.7,1.8,2470.202,13.33,0.02,87.1
2019-11-21T06:55:03,42.805,6.029,0.024,0.019,-0.032,97.0,109.0,99.0,13.4,1505.3,324.4,-0.7,1.8,2470.198,13.33,0.03,51.6
2019-11-21T06:58:03,42.805,6.029,0.008,0.017,-0.002,101.0,106.0,97.0,13.4,1505.3,326.0,-0.7,1.8,2470.17,13.33,0.018,25.2
2019-11-21T07:01:03,42.805,6.029,0.035,0.017,-0.006,99.0,107.0,97.0,13.4,1505.3,326.7,-0.8,1.8,2470.185,13.33,0.038,64.1
2019-11-21T07:04:03,42.805,6.029,0.028,0.023,-0.05,99.0,107.0,99.0,13.3,1505.3,323.7,-0.7,1.8,2470.103,13.33,0.036,50.6
2019-11-21T07:07:03,42.805,6.029,0.032,0.031,-0.027,101.0,107.0,98.0,13.3,1505.3,326.3,-0.7,1.8,2470.164,13.33,0.044,45.9
2019-11-21T07:10:03,42.805,6.029,0.015,0.033,-0.041,101.0,108.0,96.0,13.3,1505.3,324.7,-0.7,1.8,2470.134,13.33,0.036,24.4
2019-11-21T07:13:03,42.805,6.029,-0.011,0.015,-0.025,99.0,109.0,98.0,13.4,1505.3,326.7,-0.7,1.9,2470.187,13.33,0.018,323.7
2019-11-21T07:16:03,42.805,6.029,0.002,0.008,-0.05,99.0,108.0,98.0,13.3,1505.3,327.0,-0.7,1.8,2470.236,13.33,0.008,14.0
2019-11-21T07:19:03,42.805,6.029,-0.004,0.023,-0.056,99.0,111.0,98.0,13.4,1505.3,327.3,-0.7,1.8,2470.151,13.33,0.023,350.1
2019-11-21T07:22:03,42.805,6.029,0.004,0.031,-0.01,99.0,109.0,98.0,13.3,1505.3,326.8,-0.7,1.8,2470.169,13.33,0.031,7.3
2019-11-21T07:25:03,42.805,6.029,-0.007,0.031,-0.051,102.0,109.0,99.0,13.3,1505.3,327.0,-0.7,1.8,2470.213,13.33,0.031,347.3
2019-11-21T07:28:03,42.805,6.029,0.009,0.018,-0.02,100.0,109.0,98.0,13.3,1505.3,326.6,-0.7,1.8,2470.18,13.33,0.02,26.6
2019-11-21T07:31:03,42.805,6.029,0.0,0.03,-0.034,99.0,109.0,98.0,13.4,1505.3,328.4,-0.7,1.8,2470.177,13.33,0.03,0.0
2019-11-21T07:34:03,42.805,6.029,0.026,0.032,-0.037,99.0,110.0,98.0,13.3,1505.3,326.0,-0.7,1.8,2470.176,13.33,0.041,39.1
2019-11-21T07:37:03,42.805,6.029,0.014,0.012,0.001,98.0,111.0,98.0,13.4,1505.3,326.5,-0.7,1.8,2470.216,13.33,0.018,49.4
2019-11-21T07:40:03,42.805,6.029,0.004,0.035,0.006,99.0,110.0,98.0,13.4,1505.3,324.6,-0.7,1.8,2470.158,13.33,0.035,6.5
2019-11-21T07:43:03,42.805,6.029,0.007,0.02,-0.044,101.0,109.0,97.0,13.4,1505.3,324.3,-0.7,1.9,2470.196,13.33,0.021,19.3
2019-11-21T07:46:03,42.805,6.029,0.033,0.038,-0.017,100.0,109.0,98.0,13.4,1505.3,324.6,-0.7,1.8,2470.166,13.33,0.05,41.0
2019-11-21T07:49:03,42.805,6.029,0.005,0.014,-0.015,100.0,107.0,97.0,13.3,1505.3,327.4,-0.7,1.8,2470.191,13.33,0.014,19.6
2019-11-21T07:52:03,42.805,6.029,0.024,0.03,-0.013,100.0,110.0,97.0,13.3,1505.3,323.9,-0.7,1.8,2470.191,13.33,0.038,38.7
2019-11-21T07:55:03,42.805,6.029,0.039,0.017,-0.036,99.0,108.0,98.0,13.4,1505.3,324.8,-0.7,1.8,2470.167,13.33,0.042,66.5
2019-11-21T07:58:03,42.805,6.029,0.018,0.019,-0.056,99.0,109.0,98.0,13.4,1505.3,325.5,-0.7,1.8,2470.174,13.32,0.026,43.5
2019-11-21T08:04:03,42.805,6.029,0.037,0.011,-0.035,100.0,111.0,98.0,13.3,1505.3,325.4,-0.8,1.8,2470.214,13.31,0.038,73.4
2019-11-21T08:07:03,42.805,6.029,0.014,0.021,-0.024,100.0,109.0,97.0,13.4,1505.3,323.7,-0.8,1.9,2470.188,13.31,0.025,33.7
2019-11-21T08:10:03,42.805,6.029,0.0,0.011,-0.002,99.0,110.0,98.0,13.4,1505.3,324.7,-0.7,1.9,2470.2,13.32,0.011,0.0
2019-11-21T08:13:03,42.805,6.029,0.015,0.004,-0.021,98.0,110.0,98.0,13.3,1505.3,325.9,-0.7,1.8,2470.174,13.32,0.015,75.1
2019-11-21T08:16:03,42.805,6.029,0.022,0.024,-0.017,100.0,110.0,99.0,13.4,1505.3,323.6,-0.7,1.8,2470.196,13.32,0.032,42.5
2019-11-21T08:19:03,42.805,6.029,0.05,0.014,-0.01,100.0,111.0,97.0,13.4,1505.3,325.3,-0.7,1.8,2470.23,13.32,0.051,74.4
2019-11-21T08:22:03,42.805,6.029,0.008,0.032,-0.038,100.0,111.0,98.0,13.4,1505.3,325.2,-0.7,1.8,2470.165,13.32,0.032,14.0
2019-11-21T08:25:03,42.805,6.029,0.011,-0.003,-0.047,100.0,111.0,98.0,13.4,1505.3,328.4,-0.7,1.9,2470.16,13.32,0.011,105.3
2019-11-21T08:28:03,42.805,6.029,0.019,0.053,-0.01,102.0,112.0,97.0,13.4,1505.3,324.1,-0.7,1.8,2470.171,13.32,0.056,19.7
2019-11-21T08:31:03,42.805,6.029,0.019,0.025,-0.036,99.0,111.0,98.0,13.4,1505.3,325.0,-0.7,1.8,2470.198,13.32,0.031,37.2
2019-11-21T08:34:03,42.805,6.029,0.031,0.024,-0.023,99.0,110.0,98.0,13.4,1505.3,323.7,-0.7,1.8,2470.147,13.32,0.039,52.3
2019-11-21T08:37:03,42.805,6.029,0.048,0.021,-0.044,101.0,110.0,99.0,13.4,1505.3,327.0,-0.7,1.8,2470.181,13.32,0.052,66.4
2019-11-21T08:40:03,42.805,6.029,0.015,0.03,0.004,101.0,111.0,98.0,13.4,1505.3,326.4,-0.8,1.8,2470.159,13.32,0.033,26.6
2019-11-21T08:43:03,42.805,6.029,0.012,0.037,-0.027,100.0,111.0,97.0,13.3,1505.3,327.3,-0.7,1.8,2470.201,13.32,0.038,18.0
2019-11-21T08:46:03,42.805,6.029,0.02,0.039,-0.044,101.0,112.0,98.0,13.3,1505.3,324.0,-0.7,1.8,2470.196,13.32,0.043,27.1
2019-11-21T08:49:03,42.805,6.029,-0.004,0.021,-0.032,100.0,113.0,98.0,13.4,1505.3,326.1,-0.7,1.8,2470.214,13.32,0.021,349.2
2019-11-21T08:52:03,42.805,6.029,0.029,0.018,-0.012,100.0,112.0,98.0,13.3,1505.3,326.8,-0.7,1.9,2470.144,13.32,0.034,58.2
2019-11-21T08:55:03,42.805,6.029,0.016,0.028,-0.06,98.0,113.0,98.0,13.3,1505.3,323.6,-0.7,1.8,2470.228,13.32,0.032,29.7
2019-11-21T08:58:03,42.805,6.029,0.006,0.022,-0.031,100.0,112.0,99.0,13.4,1505.3,326.2,-0.7,1.8,2470.199,13.32,0.022,15.3
2019-11-21T09:04:03,42.805,6.029,0.014,0.022,-0.016,100.0,112.0,98.0,13.4,1505.2,324.9,-0.7,1.8,2470.214,13.3,0.026,32.5
2019-11-21T09:07:03,42.805,6.029,0.0,0.041,-0.038,100.0,112.0,98.0,13.3,1505.3,326.1,-0.7,1.8,2470.201,13.31,0.041,0.0
2019-11-21T09:10:03,42.805,6.029,0.033,0.018,-0.023,99.0,112.0,99.0,13.3,1505.3,326.4,-0.7,1.8,2470.248,13.31,0.037,61.4
2019-11-21T09:13:03,42.805,6.029,-0.007,0.046,-0.009,100.0,112.0,98.0,13.4,1505.3,324.2,-0.7,1.9,2470.198,13.32,0.046,351.3
2019-11-21T09:16:03,42.805,6.029,0.034,0.03,0.002,100.0,111.0,97.0,13.4,1505.3,324.4,-0.7,1.8,2470.185,13.32,0.045,48.6
2019-11-21T09:19:03,42.805,6.029,-0.002,0.02,-0.045,99.0,113.0,98.0,13.4,1505.3,326.3,-0.7,1.8,2470.244,13.32,0.02,354.3
2019-11-21T09:22:03,42.805,6.029,0.008,0.016,-0.036,101.0,112.0,97.0,13.4,1505.3,325.2,-0.7,1.8,2470.192,13.32,0.017,26.6
2019-11-21T09:25:03,42.805,6.029,-0.023,0.037,-0.084,100.0,113.0,98.0,13.4,1505.3,326.3,-0.7,1.8,2470.146,13.32,0.043,328.1
2019-11-21T09:28:03,42.805,6.029,0.019,0.016,-0.023,98.0,113.0,99.0,13.4,1505.3,326.2,-0.7,1.8,2470.224,13.32,0.024,49.9
2019-11-21T09:31:03,42.805,6.029,0.036,0.044,0.018,99.0,112.0,98.0,13.4,1505.3,328.1,-0.7,1.8,2470.168,13.32,0.056,39.3
2019-11-21T09:34:03,42.805,6.029,-0.003,0.024,-0.045,100.0,113.0,98.0,13.4,1505.3,325.7,-0.7,1.8,2470.202,13.32,0.024,352.9
2019-11-21T09:37:03,42.805,6.029,0.05,0.01,-0.058,99.0,113.0,98.0,13.4,1505.3,328.6,-0.7,1.8,2470.179,13.32,0.05,78.7
2019-11-21T09:40:03,42.805,6.029,0.002,0.022,-0.025,100.0,113.0,97.0,13.4,1505.3,328.5,-0.7,1.8,2470.196,13.32,0.022,5.2
2019-11-21T09:43:03,42.805,6.029,0.008,0.024,-0.034,100.0,112.0,97.0,13.4,1505.3,323.9,-0.7,1.9,2470.2,13.32,0.025,18.4
2019-11-21T09:46:03,42.805,6.029,0.012,0.021,-0.023,100.0,111.0,98.0,13.3,1505.3,325.2,-0.7,1.9,2470.157,13.32,0.024,29.7
2019-11-21T09:49:03,42.805,6.029,0.03,0.031,-0.038,99.0,111.0,98.0,13.3,1505.3,323.2,-0.7,1.8,2470.206,13.32,0.043,44.1
2019-11-21T09:52:03,42.805,6.029,0.045,0.028,-0.014,99.0,112.0,98.0,13.3,1505.3,325.7,-0.7,1.9,2470.186,13.32,0.053,58.1
2019-11-21T09:55:03,42.805,6.029,0.048,0.037,-0.026,98.0,112.0,99.0,13.3,1505.3,327.3,-0.7,1.8,2470.178,13.32,0.06,52.4
2019-11-21T09:58:03,42.805,6.029,0.022,0.028,-0.02,101.0,111.0,97.0,13.4,1505.3,327.6,-0.7,1.9,2470.23,13.32,0.035,38.2
2019-11-21T10:04:03,42.805,6.029,0.034,0.018,-0.032,100.0,112.0,98.0,13.4,1505.2,324.8,-0.8,1.8,2470.238,13.3,0.038,62.1
2019-11-21T10:07:03,42.805,6.029,0.024,0.039,-0.039,100.0,112.0,98.0,13.4,1505.3,325.5,-0.7,1.8,2470.214,13.31,0.045,31.6